Location: Estes Park
(40.3770°N, 105.5210°W)
Time: 23:13:07
(UTC-06:00)

N. Korean satellite - Pass Details

Date: 09 October 2017
Orbit: 459 x 517 km, 97.2° (Epoch: 19 October)

Event Time Altitude Azimuth Distance (km) Brightness Sun altitude
Rises 19:20:01 0° 177° (S) 2,567 10.2 -10.2°
Reaches altitude 10° 19:22:08 10° 182° (S) 1,680 9.3 -10.6°
Maximum altitude 19:25:41 54° 260° (W) 599 7.4 -11.3°
Drops below altitude 10° 19:29:11 10° 339° (NNW) 1,661 9.6 -11.9°
Sets 19:31:16 0° 344° (NNW) 2,535 10.5 -12.3°
